[[{"header":{"parameterUnit":"m.s-1","parameterCategory":1,"la1":30.2991,"la2":30.254,"lo1":-89.0895,"lo2":-89.0444,"dy":0.0017,"dx":0.0017,"nx":28,"ny":28,"refTime":"2024-10-07T03:00:00:Z","depth":0,"parameterNumber":2,"parameterNumberName":"U-component_of_WINDS"},"data":[0,0,0,0,0,0,0,0,0,0,0,0,0,0,0,0,0,0,0,0,0,0,0,0,0,0,0,0,0,0,0,0,0,0,0,0,0,0,0,0,0,0,0,0,0,0,0,0,0,0,0,0,0,0,0,0,0,0,-0.2113,-0.2114,0,-0.2168,-0.2169,-0.217,-0.2162,-0.2161,-0.216,-0.2159,-0.2219,-0.2221,-0.2224,0,0,0,0,0,0,0,0,0,0,0,0,0,-0.2004,-0.2006,-0.2113,-0.2114,-0.2115,-0.2168,-0.2169,-0.217,-0.2162,-0.2161,-0.216,-0.2159,-0.2218,-0.2221,-0.2224,0,0,0,0,0,0,0,0,0,0,0,0,0,-0.2054,-0.2006,-0.2113,-0.2117,-0.2118,-0.2168,-0.2169,-0.217,-0.2163,-0.2161,-0.216,-0.2158,-0.2217,-0.2221,-0.2224,-0.2274,0,0,-0.2235,-0.2237,0,0,0,0,0,0,0,0,-0.2052,-0.2058,-0.2116,-0.2117,-0.2118,-0.2157,-0.2152,-0.2205,-0.2163,-0.2146,-0.2159,-0.2158,-0.2199,-0.2204,-0.2218,-0.2277,-0.228,-0.2236,-0.2238,-0.2239,-0.224,0,0,0,0,0,0,0,-0.2048,-0.2056,-0.2135,-0.2117,-0.2118,-0.2117,-0.2123,-0.2162,-0.218,-0.2147,-0.2147,-0.2153,-0.22,-0.2214,-0.2219,-0.2281,-0.2236,-0.2239,-0.2241,-0.2242,-0.2384,-0.2386,0,0,0,0,0,0,-0.2043,-0.2053,-0.2133,-0.2137,-0.2081,-0.212,-0.2126,-0.2146,-0.2179,-0.2183,-0.2154,-0.2153,-0.2209,-0.2215,-0.2221,-0.2283,-0.2239,-0.2243,-0.2245,-0.2383,-0.2384,-0.2386,0,0,0,0,0,0,-0.2041,-0.205,-0.2131,-0.2095,-0.2105,-0.2123,-0.2145,-0.2148,-0.2162,-0.2185,-0.2188,-0.2166,-0.2208,-0.2216,-0.2261,-0.2285,-0.2244,-0.2248,-0.2381,-0.2383,-0.2385,-0.2407,0,0,0,0,0,0,-0.2038,-0.2049,-0.2068,-0.2095,-0.2107,-0.217,-0.2147,-0.215,-0.2168,-0.2167,-0.2196,-0.22,-0.2208,-0.2256,-0.2265,-0.229,-0.2251,-0.2379,-0.2382,-0.2385,-0.2404,-0.241,-0.2415,0,0,0,0,0,-0.2034,-0.2073,-0.2069,-0.2079,-0.2131,-0.2171,-0.2178,-0.2185,-0.217,-0.219,-0.2204,-0.2199,-0.228,-0.226,-0.2271,-0.2297,-0.2377,-0.2381,-0.2384,-0.2402,-0.2409,-0.2415,0,0,0,0,0,0,-0.205,-0.2077,-0.2073,-0.2122,-0.2144,-0.217,-0.2195,-0.2192,-0.2219,-0.2217,-0.2225,-0.2232,-0.2277,-0.2291,-0.2268,-0.2347,-0.2327,-0.2333,-0.2337,-0.2344,-0.2349,-0.2346,-0.2254,0,0,0,0,0,-0.2058,-0.2088,-0.211,-0.2151,-0.2162,-0.2176,-0.2194,-0.2197,-0.2221,-0.2231,-0.2248,-0.2272,-0.2303,-0.2324,-0.2353,-0.2405,-0.2413,-0.2428,-0.2433,-0.2437,-0.2443,-0.2473,-0.248,-0.2398,-0.2398,-0.2398,0,0,-0.2078,-0.2096,-0.2115,-0.2155,-0.2172,-0.2204,-0.2185,-0.2218,-0.2242,-0.2236,-0.228,-0.2293,-0.2321,-0.237,-0.2392,-0.2383,-0.2467,-0.2442,-0.2445,-0.2449,-0.2477,-0.2485,-0.2492,-0.24,-0.24,-0.2399,0,0,-0.213,-0.2146,-0.2182,-0.22,-0.2226,-0.2235,-0.2243,-0.2269,-0.2278,-0.2321,-0.2318,-0.2346,-0.2399,-0.2419,-0.2436,-0.2493,-0.2491,-0.2503,-0.2531,-0.2559,-0.2566,-0.2572,-0.2594,-0.2602,-0.2508,-0.2508,-0.2508,0,-0.2151,-0.2197,-0.2201,-0.2236,-0.2254,-0.2248,-0.2286,-0.2303,-0.2338,-0.2351,-0.2339,-0.2406,-0.2423,-0.2477,-0.2491,-0.2504,-0.2516,-0.2501,-0.2564,-0.257,-0.2576,-0.2597,-0.2605,-0.2509,-0.2509,-0.2509,-0.2509,0,-0.2223,-0.2255,-0.2281,-0.2314,-0.2335,-0.2371,-0.2381,-0.2402,-0.2402,-0.2413,-0.2457,-0.2478,-0.2512,-0.2524,-0.2526,-0.2579,-0.2572,-0.2562,-0.2543,-0.2585,-0.2605,-0.2613,-0.2511,-0.2511,-0.251,-0.251,0,0,-0.2289,-0.2322,-0.2332,-0.2348,-0.2375,-0.2401,-0.2436,-0.2468,-0.2486,-0.251,-0.2541,-0.2585,-0.2576,-0.2595,-0.2598,-0.2623,-0.2669,-0.261,-0.2611,-0.2622,-0.273,-0.2739,-0.2749,-0.2666,-0.2667,-0.2669,-0.2729,0,-0.2345,-0.2407,-0.2411,-0.2468,-0.2498,-0.2492,-0.2523,-0.2544,-0.2554,-0.2582,-0.2593,-0.2625,-0.2609,-0.2621,-0.2644,-0.2658,-0.2691,-0.2654,-0.2697,-0.2698,-0.2693,-0.2759,-0.2769,-0.2825,-0.2736,-0.2738,-0.2739,0,-0.242,-0.2445,-0.2504,-0.2528,-0.2541,-0.2568,-0.2598,-0.2624,-0.2647,-0.2653,-0.2674,-0.2673,-0.271,-0.2687,-0.2739,-0.2713,-0.273,-0.274,-0.2742,-0.2749,-0.2723,-0.277,-0.2842,-0.2852,-0.2751,-0.275,-0.2749,0,-0.2465,-0.2513,-0.2555,-0.2568,-0.2596,-0.2615,-0.2628,-0.265,-0.2669,-0.2695,-0.2708,-0.2738,-0.2755,-0.2778,-0.2786,-0.2768,-0.2838,-0.2815,-0.2846,-0.2846,-0.2863,-0.2863,-0.2942,-0.287,-0.287,-0.287,-0.2869,0,-0.2529,-0.2566,-0.2576,-0.2602,-0.2643,-0.2647,-0.2688,-0.2699,-0.2719,-0.2748,-0.2743,-0.2771,-0.2778,-0.2807,-0.2813,-0.2856,-0.2863,-0.287,-0.2872,-0.2872,-0.2872,-0.2886,-0.2883,-0.2872,-0.2871,-0.2871,-0.2871,0,-0.2587,-0.2595,-0.264,-0.2662,-0.2669,-0.2698,-0.2718,-0.2743,-0.2751,-0.2788,-0.2797,-0.2811,-0.2844,-0.2854,-0.2894,-0.2898,-0.2949,-0.2946,-0.2942,-0.2943,-0.2973,-0.2971,-0.3067,-0.308,-0.2997,-0.2997,-0.2998,0,-0.2629,-0.2657,-0.2681,-0.27,-0.2713,-0.2743,-0.2762,-0.2766,-0.2787,-0.2815,-0.2837,-0.287,-0.2897,-0.2951,-0.2965,-0.2996,-0.2995,-0.3027,-0.3,-0.3,-0.2999,-0.2998,-0.3001,-0.3033,-0.3034,-0.3034,-0.3035,0,-0.2702,-0.2705,-0.2732,-0.276,-0.2783,-0.2806,-0.2828,-0.2843,-0.2851,-0.2874,-0.2907,-0.2928,-0.2969,-0.3002,-0.3033,-0.3047,-0.3043,-0.3042,-0.3052,-0.3054,-0.3051,-0.3055,-0.2958,-0.3041,-0.304,-0.304,-0.304,-0.3039,-0.2755,-0.2781,-0.2802,-0.2832,-0.2849,-0.2869,-0.2894,-0.2905,-0.2933,-0.2966,-0.2966,-0.3004,-0.3026,-0.3067,-0.3082,-0.3112,-0.3103,-0.3116,-0.3119,-0.3123,-0.3127,-0.3043,-0.3117,-0.3117,-0.3117,-0.3117,-0.3117,0,-0.2831,-0.2844,-0.2871,-0.2902,-0.2926,-0.2917,-0.2941,-0.2962,-0.2995,-0.3015,-0.3041,-0.308,-0.3112,-0.3128,-0.316,-0.318,-0.3179,-0.3189,-0.3189,-0.3192,-0.3132,-0.3122,-0.3189,-0.3189,-0.3189,-0.3189,-0.3189,-0.3189,-0.2873,-0.2916,-0.292,-0.2971,-0.2983,-0.3019,-0.3033,-0.3052,-0.3069,-0.3112,-0.3138,-0.3148,-0.3167,-0.32,-0.3229,-0.3232,-0.3245,-0.3256,-0.326,-0.3204,-0.3196,-0.319,-0.318,-0.3259,-0.3259,-0.3318,-0.3318,-0.3319]},{"header":{"parameterUnit":"m.s-1","parameterCategory":1,"la1":30.2991,"la2":30.254,"lo1":-89.0895,"lo2":-89.0444,"dy":0.0017,"dx":0.0017,"nx":28,"ny":28,"refTime":"2024-10-07T03:00:00:Z","depth":0,"parameterNumber":3,"parameterNumberName":"V-component_of_WINDS"},"data":[0,0,0,0,0,0,0,0,0,0,0,0,0,0,0,0,0,0,0,0,0,0,0,0,0,0,0,0,0,0,0,0,0,0,0,0,0,0,0,0,0,0,0,0,0,0,0,0,0,0,0,0,0,0,0,0,0,0,-2.23,-2.23,0,-2.2321,-2.2321,-2.2322,-2.2307,-2.2306,-2.2306,-2.2305,-2.2326,-2.2327,-2.2328,0,0,0,0,0,0,0,0,0,0,0,0,0,-2.2248,-2.2249,-2.23,-2.2301,-2.2301,-2.2321,-2.2321,-2.2322,-2.2307,-2.2306,-2.2306,-2.2305,-2.2326,-2.2327,-2.2329,0,0,0,0,0,0,0,0,0,0,0,0,0,-2.227,-2.2249,-2.23,-2.2296,-2.2296,-2.2321,-2.2321,-2.2322,-2.2307,-2.2306,-2.2305,-2.2305,-2.2325,-2.2327,-2.2329,-2.2359,0,0,-2.2334,-2.2335,0,0,0,0,0,0,0,0,-2.2268,-2.2272,-2.2296,-2.2296,-2.2296,-2.2311,-2.2311,-2.2334,-2.2308,-2.2303,-2.2305,-2.2304,-2.2322,-2.2324,-2.233,-2.236,-2.2361,-2.2334,-2.2335,-2.2336,-2.2337,0,0,0,0,0,0,0,-2.2267,-2.2271,-2.2309,-2.2297,-2.2297,-2.2293,-2.2295,-2.2315,-2.2318,-2.2303,-2.2302,-2.2305,-2.2322,-2.2328,-2.233,-2.2361,-2.2334,-2.2336,-2.2337,-2.2338,-2.2419,-2.242,0,0,0,0,0,0,-2.2266,-2.2269,-2.2308,-2.2309,-2.228,-2.2295,-2.2297,-2.2307,-2.2317,-2.2318,-2.2306,-2.2304,-2.2326,-2.2328,-2.2331,-2.2368,-2.2336,-2.2338,-2.2339,-2.2418,-2.2419,-2.2421,0,0,0,0,0,0,-2.2265,-2.2269,-2.2307,-2.2289,-2.2294,-2.2297,-2.2308,-2.2308,-2.2314,-2.2319,-2.232,-2.2312,-2.2325,-2.2328,-2.2353,-2.2369,-2.2339,-2.234,-2.2417,-2.2418,-2.242,-2.2442,0,0,0,0,0,0,-2.2263,-2.2269,-2.2281,-2.2289,-2.2295,-2.2328,-2.2309,-2.2309,-2.2318,-2.2316,-2.2325,-2.2326,-2.2324,-2.235,-2.2354,-2.2371,-2.2342,-2.2415,-2.2417,-2.2419,-2.244,-2.2445,-2.2448,0,0,0,0,0,-2.2261,-2.2286,-2.2281,-2.2286,-2.2309,-2.2329,-2.2332,-2.233,-2.2319,-2.2331,-2.2334,-2.2326,-2.2366,-2.2353,-2.2357,-2.2374,-2.2414,-2.2417,-2.2419,-2.2438,-2.2444,-2.2448,0,0,0,0,0,0,-2.2278,-2.2287,-2.2282,-2.231,-2.2319,-2.2327,-2.2342,-2.2336,-2.2348,-2.2346,-2.2343,-2.2345,-2.2371,-2.2375,-2.236,-2.2405,-2.2388,-2.2392,-2.2401,-2.2407,-2.2411,-2.2409,-2.2343,0,0,0,0,0,-2.2285,-2.2301,-2.2308,-2.2332,-2.2337,-2.2338,-2.2347,-2.2345,-2.2354,-2.2358,-2.2363,-2.2372,-2.2387,-2.2397,-2.2411,-2.2441,-2.2443,-2.2455,-2.2459,-2.2462,-2.2465,-2.2483,-2.2488,-2.2429,-2.2429,-2.2429,0,0,-2.23,-2.2307,-2.2317,-2.2335,-2.2342,-2.2359,-2.2342,-2.236,-2.2372,-2.236,-2.2384,-2.2388,-2.2398,-2.2426,-2.2438,-2.243,-2.2482,-2.2465,-2.2468,-2.2469,-2.2486,-2.2491,-2.2496,-2.243,-2.243,-2.243,0,0,-2.2335,-2.2342,-2.2363,-2.237,-2.2381,-2.2382,-2.2387,-2.2396,-2.2399,-2.2422,-2.2414,-2.2429,-2.2454,-2.2462,-2.2469,-2.2509,-2.2502,-2.2513,-2.2535,-2.2552,-2.2556,-2.256,-2.2576,-2.2581,-2.2516,-2.2516,-2.2516,0,-2.2352,-2.2377,-2.2374,-2.2393,-2.2402,-2.2393,-2.2414,-2.2422,-2.2436,-2.2443,-2.2433,-2.2466,-2.2472,-2.2502,-2.2512,-2.2517,-2.2524,-2.2512,-2.2556,-2.256,-2.2564,-2.2578,-2.2584,-2.2518,-2.2518,-2.2518,-2.2517,0,-2.2397,-2.2415,-2.2431,-2.2446,-2.2456,-2.2476,-2.2477,-2.2488,-2.2485,-2.2487,-2.2512,-2.2519,-2.2535,-2.2541,-2.2538,-2.2571,-2.2566,-2.2556,-2.254,-2.2571,-2.2584,-2.259,-2.252,-2.2519,-2.2519,-2.2519,0,0,-2.2444,-2.2458,-2.2464,-2.2471,-2.2483,-2.2496,-2.2516,-2.2532,-2.2542,-2.2552,-2.2569,-2.2591,-2.2583,-2.2591,-2.2589,-2.2604,-2.2636,-2.2593,-2.2593,-2.2601,-2.2674,-2.2682,-2.2688,-2.2631,-2.2632,-2.2633,-2.2673,0,-2.2481,-2.2516,-2.2515,-2.2548,-2.2564,-2.2556,-2.2573,-2.2582,-2.2585,-2.26,-2.2602,-2.2619,-2.2606,-2.2611,-2.2625,-2.2629,-2.2651,-2.2626,-2.2648,-2.2649,-2.2646,-2.2695,-2.2703,-2.274,-2.2678,-2.2679,-2.268,0,-2.2528,-2.2541,-2.2576,-2.2586,-2.2593,-2.2609,-2.2624,-2.2637,-2.2648,-2.2649,-2.2659,-2.2654,-2.2675,-2.2658,-2.2687,-2.267,-2.2679,-2.2682,-2.2684,-2.2686,-2.2667,-2.27,-2.2752,-2.2758,-2.2688,-2.2687,-2.2687,0,-2.256,-2.2586,-2.261,-2.2617,-2.2629,-2.264,-2.2646,-2.2655,-2.2665,-2.2678,-2.2684,-2.2699,-2.2708,-2.2719,-2.272,-2.2707,-2.2749,-2.2732,-2.2751,-2.2752,-2.2761,-2.2761,-2.2817,-2.2766,-2.2765,-2.2765,-2.2765,0,-2.2602,-2.2624,-2.2625,-2.264,-2.2665,-2.2663,-2.2687,-2.2691,-2.27,-2.2716,-2.2709,-2.2725,-2.2723,-2.2739,-2.2739,-2.2764,-2.2767,-2.2769,-2.2769,-2.277,-2.277,-2.2777,-2.2774,-2.2767,-2.2767,-2.2766,-2.2766,0,-2.2641,-2.2643,-2.267,-2.2679,-2.2682,-2.27,-2.2708,-2.2722,-2.2725,-2.2745,-2.275,-2.2754,-2.2772,-2.2773,-2.2793,-2.2794,-2.2824,-2.2821,-2.2821,-2.282,-2.2841,-2.2839,-2.2904,-2.2912,-2.2854,-2.2855,-2.2855,0,-2.2668,-2.2685,-2.2697,-2.2707,-2.2713,-2.273,-2.274,-2.2739,-2.275,-2.2764,-2.2777,-2.2795,-2.2809,-2.2838,-2.2843,-2.2859,-2.2856,-2.2878,-2.2859,-2.286,-2.2858,-2.2857,-2.286,-2.2882,-2.2882,-2.2883,-2.2883,0,-2.2716,-2.2716,-2.2731,-2.2747,-2.276,-2.2772,-2.2783,-2.2792,-2.2793,-2.2805,-2.2824,-2.2835,-2.2856,-2.2874,-2.289,-2.2896,-2.289,-2.2889,-2.2895,-2.2897,-2.2897,-2.2898,-2.2832,-2.2888,-2.2888,-2.2887,-2.2887,-2.2887,-2.2751,-2.2766,-2.2777,-2.2794,-2.2802,-2.2813,-2.2828,-2.2832,-2.2848,-2.2866,-2.2864,-2.2885,-2.2896,-2.2917,-2.2924,-2.294,-2.2933,-2.2941,-2.2943,-2.2945,-2.2948,-2.2893,-2.2943,-2.2943,-2.2943,-2.2943,-2.2943,0,-2.2799,-2.2806,-2.2822,-2.2838,-2.2852,-2.2845,-2.2858,-2.287,-2.2888,-2.2899,-2.2913,-2.2935,-2.2953,-2.2959,-2.2976,-2.2988,-2.2986,-2.2993,-2.2993,-2.2994,-2.2953,-2.2947,-2.2995,-2.2995,-2.2995,-2.2995,-2.2994,-2.2994,-2.2826,-2.2852,-2.2853,-2.2883,-2.2889,-2.291,-2.2918,-2.2928,-2.2937,-2.2962,-2.2976,-2.298,-2.2989,-2.3007,-2.3023,-2.3025,-2.3032,-2.304,-2.3041,-2.3002,-2.2997,-2.2992,-2.2986,-2.3041,-2.3041,-2.3081,-2.3081,-2.3081]}]]